DLH4XV EDDL-EDDF

Flight info

Callsign DLH4XV
Flight time 0h 28m
Altitude 23000
Route COL6T/23L COL T911 ROLIS ROLIS5A
Aircraft A388/J-SADE2E3FGHIJ3J4J5M1RWXY/LB1D1

Departure

Time 2026-05-05 11:10
Airport Düsseldorf Airport (EDDL)

Arrival

Time 2026-05-05 11:38
Airport Frankfurt Main Airport (EDDF)
Time Latitude Longitude Altitude Speed Heading
2026-05-05 10:57 51.27779 6.76241 125 ft 0 kts 162°
2026-05-05 10:57 51.27778 6.76240 126 ft 0 kts 162°
2026-05-05 11:01 51.27783 6.76237 133 ft 4 kts 161°
2026-05-05 11:01 51.27807 6.76220 130 ft 4 kts 149°
2026-05-05 11:01 51.27827 6.76195 128 ft 4 kts 130°
2026-05-05 11:01 51.27839 6.76163 132 ft 4 kts 104°
2026-05-05 11:02 51.27841 6.76128 133 ft 4 kts 89°
2026-05-05 11:02 51.27837 6.76092 132 ft 4 kts 61°
2026-05-05 11:02 51.27823 6.76069 126 ft 4 kts 36°
2026-05-05 11:02 51.27801 6.76050 132 ft 4 kts 17°
2026-05-05 11:03 51.27776 6.76043 133 ft 4 kts
2026-05-05 11:03 51.27749 6.76042 134 ft 4 kts
2026-05-05 11:03 51.27744 6.76042 134 ft 0 kts
2026-05-05 11:04 51.27785 6.76046 133 ft 11 kts
2026-05-05 11:04 51.27865 6.76042 132 ft 12 kts 358°
2026-05-05 11:04 51.27954 6.76043 127 ft 13 kts
2026-05-05 11:04 51.28050 6.76042 131 ft 15 kts 351°
2026-05-05 11:05 51.28138 6.76050 127 ft 11 kts 53°
2026-05-05 11:05 51.28195 6.76160 128 ft 14 kts 49°
2026-05-05 11:05 51.28263 6.76297 125 ft 19 kts 51°
2026-05-05 11:05 51.28361 6.76498 125 ft 26 kts 52°
2026-05-05 11:06 51.28478 6.76742 128 ft 28 kts 52°
2026-05-05 11:06 51.28590 6.76982 131 ft 29 kts 52°
2026-05-05 11:06 51.28729 6.77271 134 ft 34 kts 52°
2026-05-05 11:06 51.28862 6.77549 128 ft 29 kts 53°
2026-05-05 11:07 51.28972 6.77783 133 ft 25 kts 53°
2026-05-05 11:07 51.29072 6.77994 139 ft 23 kts 52°
2026-05-05 11:07 51.29170 6.78198 140 ft 23 kts 52°
2026-05-05 11:07 51.29268 6.78403 138 ft 23 kts 52°
2026-05-05 11:08 51.29380 6.78562 138 ft 20 kts
2026-05-05 11:08 51.29506 6.78551 140 ft 15 kts 334°
2026-05-05 11:08 51.29601 6.78474 140 ft 14 kts 357°
2026-05-05 11:08 51.29636 6.78531 141 ft 5 kts 106°
2026-05-05 11:09 51.29609 6.78582 142 ft 5 kts 159°
2026-05-05 11:09 51.29572 6.78564 142 ft 8 kts 217°
2026-05-05 11:09 51.29457 6.78344 138 ft 63 kts 232°
2026-05-05 11:09 51.29021 6.77426 128 ft 140 kts 232°
2026-05-05 11:10 51.28393 6.75986 529 ft 155 kts 238°
2026-05-05 11:10 51.27763 6.74635 1462 ft 150 kts 234°
2026-05-05 11:10 51.27120 6.73294 2175 ft 156 kts 234°
2026-05-05 11:10 51.26441 6.71860 2983 ft 165 kts 233°
2026-05-05 11:11 51.25614 6.70601 3848 ft 167 kts 204°
2026-05-05 11:11 51.24491 6.70457 4680 ft 171 kts 165°
2026-05-05 11:11 51.23452 6.71561 5203 ft 192 kts 134°
2026-05-05 11:11 51.22641 6.73304 5652 ft 209 kts 126°
2026-05-05 11:12 51.21787 6.75370 5995 ft 228 kts 126°
2026-05-05 11:12 51.20810 6.77561 6449 ft 255 kts 128°
2026-05-05 11:12 51.19694 6.79869 7228 ft 267 kts 130°
2026-05-05 11:12 51.18509 6.82227 8175 ft 274 kts 130°
2026-05-05 11:13 51.17303 6.84591 9315 ft 276 kts 130°
2026-05-05 11:13 51.16091 6.86953 10264 ft 281 kts 130°
2026-05-05 11:13 51.14809 6.89443 10649 ft 304 kts 130°
2026-05-05 11:13 51.13414 6.92146 10913 ft 326 kts 131°
2026-05-05 11:14 51.11937 6.95010 11448 ft 339 kts 131°
2026-05-05 11:14 51.10437 6.97923 12311 ft 344 kts 131°
2026-05-05 11:14 51.08907 7.00891 13130 ft 350 kts 131°
2026-05-05 11:14 51.07348 7.03910 13948 ft 356 kts 131°
2026-05-05 11:15 51.05764 7.06974 14825 ft 359 kts 131°
2026-05-05 11:15 51.04173 7.10048 15692 ft 362 kts 131°
2026-05-05 11:15 51.02562 7.13157 16557 ft 367 kts 131°
2026-05-05 11:15 51.00929 7.16303 17429 ft 372 kts 131°
2026-05-05 11:16 50.99266 7.19502 18304 ft 377 kts 131°
2026-05-05 11:16 50.97607 7.22691 19085 ft 381 kts 131°
2026-05-05 11:16 50.95911 7.25947 19899 ft 384 kts 131°
2026-05-05 11:16 50.94195 7.29236 20705 ft 388 kts 131°
2026-05-05 11:17 50.92466 7.32546 21406 ft 394 kts 131°
2026-05-05 11:17 50.90665 7.35985 21639 ft 413 kts 131°
2026-05-05 11:17 50.88792 7.39557 21831 ft 431 kts 131°
2026-05-05 11:17 50.86839 7.43278 22027 ft 447 kts 131°
2026-05-05 11:18 50.84843 7.47077 22250 ft 459 kts 131°
2026-05-05 11:18 50.82792 7.50981 22810 ft 463 kts 131°
2026-05-05 11:18 50.80715 7.54912 23101 ft 471 kts 133°
2026-05-05 11:18 50.78286 7.58533 22850 ft 488 kts 144°
2026-05-05 11:19 50.75381 7.61449 23010 ft 494 kts 152°
2026-05-05 11:19 50.72437 7.64022 24361 ft 475 kts 153°
2026-05-05 11:19 50.69557 7.66544 25044 ft 473 kts 153°
2026-05-05 11:19 50.66670 7.69070 25509 ft 474 kts 153°
2026-05-05 11:20 50.63778 7.71589 25960 ft 474 kts 155°
2026-05-05 11:20 50.60731 7.73565 26126 ft 474 kts 165°
2026-05-05 11:20 50.57571 7.74808 26244 ft 474 kts 168°
2026-05-05 11:20 50.54393 7.76092 25902 ft 468 kts 166°
2026-05-05 11:21 50.51290 7.77634 24781 ft 462 kts 162°
2026-05-05 11:21 50.48295 7.79386 23405 ft 454 kts 160°
2026-05-05 11:21 50.45422 7.81340 21644 ft 447 kts 154°
2026-05-05 11:21 50.42748 7.83740 20046 ft 440 kts 148°
2026-05-05 11:22 50.40305 7.86564 18541 ft 433 kts 141°
2026-05-05 11:22 50.38122 7.89774 17014 ft 426 kts 135°
2026-05-05 11:22 50.36239 7.93295 15649 ft 417 kts 128°
2026-05-05 11:22 50.34662 7.97064 14462 ft 410 kts 124°
2026-05-05 11:23 50.32896 8.00467 13748 ft 392 kts 140°
2026-05-05 11:23 50.30756 8.02748 13296 ft 369 kts 157°
2026-05-05 11:23 50.28310 8.03885 13079 ft 359 kts 167°
2026-05-05 11:23 50.26040 8.05222 12765 ft 344 kts 149°
2026-05-05 11:24 50.24214 8.07571 11951 ft 340 kts 134°
2026-05-05 11:24 50.22916 8.10638 11001 ft 340 kts 112°
2026-05-05 11:24 50.22454 8.14233 10306 ft 339 kts 92°
2026-05-05 11:24 50.22453 8.17925 10002 ft 341 kts 91°
2026-05-05 11:25 50.22469 8.21620 9884 ft 339 kts 91°
2026-05-05 11:25 50.22463 8.25298 9854 ft 339 kts 92°
2026-05-05 11:25 50.22436 8.28995 9848 ft 340 kts 92°
2026-05-05 11:25 50.22398 8.32605 9850 ft 328 kts 92°
2026-05-05 11:26 50.22358 8.36018 9852 ft 302 kts 92°
2026-05-05 11:26 50.22317 8.39235 9856 ft 291 kts 93°
2026-05-05 11:26 50.22273 8.42398 9855 ft 289 kts 93°
2026-05-05 11:26 50.22229 8.45542 9841 ft 290 kts 93°
2026-05-05 11:27 50.22183 8.48702 9835 ft 291 kts 93°
2026-05-05 11:27 50.22137 8.51862 9840 ft 291 kts 93°
2026-05-05 11:27 50.22091 8.54974 9759 ft 290 kts 93°
2026-05-05 11:27 50.22045 8.58112 9506 ft 287 kts 93°
2026-05-05 11:28 50.21999 8.61216 8976 ft 285 kts 93°
2026-05-05 11:28 50.21952 8.64304 8352 ft 283 kts 93°
2026-05-05 11:28 50.21906 8.67313 7952 ft 272 kts 93°
2026-05-05 11:28 50.21860 8.70248 7400 ft 270 kts 93°
2026-05-05 11:29 50.21813 8.73167 6856 ft 268 kts 93°
2026-05-05 11:29 50.21765 8.76061 6323 ft 263 kts 93°
2026-05-05 11:29 50.21718 8.78913 5571 ft 263 kts 93°
2026-05-05 11:29 50.21670 8.81757 4945 ft 261 kts 93°
2026-05-05 11:30 50.21622 8.84576 4363 ft 258 kts 92°
2026-05-05 11:30 50.21679 8.87309 4057 ft 255 kts 82°
2026-05-05 11:30 50.22124 8.90003 3979 ft 260 kts 70°
2026-05-05 11:30 50.22767 8.92636 3982 ft 256 kts 75°
2026-05-05 11:31 50.22862 8.95331 3975 ft 247 kts 103°
2026-05-05 11:31 50.22112 8.97685 3976 ft 242 kts 133°
2026-05-05 11:31 50.20742 8.99093 3980 ft 233 kts 161°
2026-05-05 11:31 50.19184 8.99746 3971 ft 230 kts 175°
2026-05-05 11:32 50.17631 8.99364 3974 ft 230 kts 206°
2026-05-05 11:32 50.16363 8.97815 3984 ft 231 kts 224°
2026-05-05 11:32 50.15204 8.96064 3972 ft 232 kts 224°
2026-05-05 11:32 50.14057 8.94340 3973 ft 231 kts 223°
2026-05-05 11:33 50.12904 8.92596 3976 ft 230 kts 224°
2026-05-05 11:33 50.11889 8.90669 3973 ft 230 kts 237°
2026-05-05 11:33 50.11155 8.88448 3968 ft 231 kts 245°
2026-05-05 11:33 50.10564 8.86115 3967 ft 232 kts 249°
2026-05-05 11:34 50.10003 8.83740 3758 ft 234 kts 248°
2026-05-05 11:34 50.09433 8.81367 3426 ft 233 kts 249°
2026-05-05 11:34 50.08885 8.79069 3127 ft 215 kts 249°
2026-05-05 11:34 50.08399 8.77027 2837 ft 188 kts 249°
2026-05-05 11:35 50.07965 8.75209 2575 ft 173 kts 249°
2026-05-05 11:35 50.07553 8.73490 2361 ft 171 kts 249°
2026-05-05 11:35 50.07153 8.71759 2082 ft 170 kts 253°
2026-05-05 11:35 50.07004 8.69939 1791 ft 169 kts 263°
2026-05-05 11:36 50.06801 8.68115 1564 ft 166 kts 254°
2026-05-05 11:36 50.06439 8.66539 1417 ft 144 kts 246°
2026-05-05 11:36 50.06062 8.65123 1070 ft 137 kts 249°
2026-05-05 11:36 50.05740 8.63823 1023 ft 133 kts 248°
2026-05-05 11:37 50.05374 8.62424 956 ft 143 kts 247°
2026-05-05 11:37 50.05000 8.60958 805 ft 148 kts 251°
2026-05-05 11:37 50.04789 8.59949 639 ft 149 kts 250°
2026-05-05 11:37 50.04335 8.57996 375 ft 131 kts 249°
2026-05-05 11:38 50.04157 8.57207 375 ft 99 kts 249°
2026-05-05 11:38 50.03990 8.56444 358 ft 22 kts 271°
2026-05-05 11:38 50.04001 8.56284 358 ft 23 kts 278°
2026-05-05 11:38 50.04013 8.56186 363 ft 4 kts 282°
2026-05-05 11:39 50.04021 8.56127 359 ft 5 kts 282°
2026-05-05 11:39 50.04026 8.56093 361 ft 0 kts 285°
2026-05-05 11:39 50.04030 8.56075 362 ft 7 kts 285°
2026-05-05 11:39 50.04069 8.55989 361 ft 12 kts 331°
2026-05-05 11:40 50.04152 8.55935 364 ft 14 kts 346°